Location: Newark
(54.2500°N, 9.1833°E)
Time: 22:46:14
(UTC+00:00)

Vanguard 2 Rocket - Pass Details

Date: 13 December 2019
Orbit: 554 x 3326 km, 32.9° (Epoch: 21 January)

Event Time Altitude Azimuth Distance (km) Brightness Sun altitude
Rises 17:15:05 0° 232° (SW) 6,752 12.6 -18.3°
Reaches altitude 10° 17:21:21 10° 221° (SW) 5,294 11.6 -19.2°
Maximum altitude 17:31:11 22° 179° (S) 3,486 9.9 -20.6°
Drops below altitude 10° 17:38:10 10° 133° (SE) 3,615 9.6 -21.6°
Enters shadow 17:38:12 10° 133° (SE) 3,619 9.6 -21.6°
